Вернуться в каталог

SL-16 DEB

АктивенLEO
NORAD 22805·DEBRIS·🇷🇺 Russia

Запущен Sep 16, 1993 с Baikonur Cosmodrome

Loading…

Ближайшие Пролёты (ближайшие 24 часа)

TLE

СвежийSource: Space-Track

Эпоха: Sep 14, 2026, 09:09 UTC

1 22805U 93059D   26257.38192678  .00000026  00000-0  65033-4 0  9998
2 22805  70.9721  54.1217 0210465  77.2957 305.7041 13.70752251649585

Отслеживайте SL-16 DEB в реальном времени с AllMySat

Download on the App Store